Skip Page Navigation
NASA JPL Caltech
NASA Logo - Jet Propulsion Laboratory + View the NASA Portal
+ Near-Earth Object (NEO) Program
Search JPL
JPL Home Earth Solar System Stars & Galaxies Technology
JPL Solar System Dynamics
BODIES ORBITS EPHEMERIDES TOOLS PHYSICAL DATA DISCOVERY FAQ SITE MAP
JPL Small-Body Database Browser
Search: [ help ]  
(2011 BN24)
Classification: Apollo [NEO, PHA]          SPK-ID: 3555791
Ephemeris | Orbit Diagram | Orbital Elements | Physical Parameters | Close-Approach Data ]

[ hide orbit diagram ]
Orbit Diagram
Note: Make sure you have Java enabled on your browser to see the applet. This applet is provided as a 3D orbit visualization tool. The applet was implemented using 2-body methods, and hence should not be used for determining accurate long-term trajectories (over several years or decades) or planetary encounter circumstances. For accurate long-term ephemerides, please instead use our Horizons system.
Orbit Viewer

Additional Notes: the orbits shown in the applet are color coded. The planets are white lines, and the asteroid/comet is a blue line. The bright white line indicates the portion of the orbit that is above the ecliptic plane, and the darker portion is below the ecliptic plane. Likewise for the asteroid/comet orbit, the light blue indicates the portion above the ecliptic plane, and the dark blue the portion below the ecliptic plane.

Orbit Viewer applet originally written and kindly provided by Osamu Ajiki (AstroArts), and further modified by Ron Baalke (JPL).


Orbital Elements at Epoch 2456400.5 (2013-Apr-18.0) TDB
Reference: JPL 14 (heliocentric ecliptic J2000)
 Element Value Uncertainty (1-sigma)   Units 
e .4125592546662946 1.485e-06  
a 1.544582565302631 4.9397e-07 AU
q .9073507333908243 2.5606e-06 AU
i 3.935018305000008 3.1341e-05 deg
node 195.9006225256597 0.00034748 deg
peri 61.69440777172051 0.00062832 deg
M 331.0955648922555 0.00027506 deg
tp 2456456.795943848475
(2013-Jun-13.29594385)
0.0005097 JED
period 701.156750163264
1.92
0.00033635
9.209e-07
d
yr
n .5134372590953081 2.463e-07 deg/d
Q 2.181814397214438 6.9776e-07 AU
  Orbit Determination Parameters
   # obs. used (total)      51  
   data-arc span      822 days (2.25 yr)  
   first obs. used      2011-01-28  
   last obs. used      2013-04-29  
   planetary ephem.      DE405  
   SB-pert. ephem.      SB405-CPV-2  
   condition code      2  
   fit RMS      .50566  
   data source      ORB  
   producer      Otto Matic  
   solution date      2013-Apr-29 12:12:39  

Additional Information
 Earth MOID = .0157806 AU 
 T_jup = 4.359 
[ show covariance matrix ]

Ephemeris | Orbit Diagram | Orbital Elements | Physical Parameters | Close-Approach Data ]

Physical Parameter Table
Parameter Symbol Value Units Sigma Reference Notes
absolute magnitude H 20.964 mag .40574 14 autocmod 2.5c

[ show close-approach data ]
Ephemeris | Orbit Diagram | Orbital Elements | Physical Parameters | Close-Approach Data ]
ABOUT SSD CREDITS/AWARDS PRIVACY/COPYRIGHT GLOSSARY LINKS
FirstGov 2013-May-25 03:27 UT
(server date/time)  
NASA Home Page
Site Manager:   Donald K. Yeomans
Webmaster  Alan B. Chamberlin